www.pogodaiklimat.ru

Погода и климат >> Архив погоды >> Великобритания >> Альбермарль


ПОГОДА в Альбермарле

  • Прогноз погоды в Альбермарле
  • Монитор погоды в Альбермарле

АРХИВ ПОГОДЫ в Альбермарле

Время (UTC), дата Ветер
(напр.,м/с)
 
Видим.   Явления Облачность Т
(С)
Тd
(С)
f
(%)
Тe
(С)
Тes
(С)
Комфортность P
(гПа)
Po
(гПа)
Тmin
(С)
Tmax
(С)
R
(мм)
R24
(мм)
S
(см)
22 10.06 СВ 3 27 км н/о +10.4 +9.1 92 +8 +8 1020.6 1003.3
23 10.06 СВ 4 26 км н/о +10.2 +8.6 90 +8 +8 1020.9 1003.6
00 11.06 СВ 4 15 км дождь н/о +8.9 +7.7 92 +6 +6 1020.9 1003.6 0.4
01 11.06 С 2 21 км н/о +7.8 +7.0 95 +6 +6 1020.8 1003.4
02 11.06 С 2 45 км н/о +7.6 +6.7 94 +5 +5 1020.8 1003.3
03 11.06 С 2 35 км н/о +7.1 +6.1 93 +5 +5 1020.6 1003.1
04 11.06 С 1 40 км н/о +6.9 +6.1 95 +6 +6 1020.9 1003.4
05 11.06 С 2 40 км н/о +7.1 +6.4 95 +5 +5 1021.2 1003.7
06 11.06 СВ 3 27 км н/о +8.3 +7.0 92 +6 +6 1020.8 1003.3 +6.7
07 11.06 С 3 45 км н/о +9.5 +7.1 85 +7 +7 1020.5 1003.1
08 11.06 СВ 4 16 км в посл. час дождь н/о +9.1 +7.0 87 +6 +6 1020.3 1003.0
09 11.06 СВ 5 30 км н/о +10.5 +6.3 75 +8 +8 1020.0 1002.7
10 11.06 СВ 5 50 км н/о +10.5 +5.9 73 +8 +8 1020.2 1002.9
11 11.06 СВ 6 35 км н/о +10.8 +6.4 74 +8 +8 1020.4 1003.1
12 11.06 С 3 45 км в посл. час дождь н/о +10.3 +6.8 79 +8 +8 1020.6 1003.3 0.0
13 11.06 СВ 4 28 км н/о +10.6 +6.2 74 +8 +8 1020.3 1003.0
14 11.06 СВ 5 40 км в посл. час дождь н/о +10.5 +8.1 85 +7 +7 1020.2 1002.9
15 11.06 СВ 5 35 км н/о +10.6 +6.7 77 +8 +8 1020.0 1002.7
16 11.06 СВ 5 45 км н/о +10.6 +6.2 74 +8 +8 1019.9 1002.6
17 11.06 СВ 5 30 км н/о +10.6 +6.8 77 +8 +8 1019.3 1002.0
18 11.06 СВ 4 30 км н/о +10.2 +7.3 82 +8 +8 1019.1 1001.8 +11.6 0.0
19 11.06 СВ 4 27 км н/о +10.0 +7.1 82 +8 +8 1019.1 1001.8
20 11.06 СВ 3 40 км н/о +9.6 +7.2 85 +8 +8 1019.2 1001.9
21 11.06 СВ 3 40 км н/о +9.4 +7.3 87 +7 +7 1019.1 1001.8
22 11.06 С 3 45 км н/о +9.2 +7.1 87 +7 +7 1018.7 1001.3
23 11.06 С 3 40 км слаб. ливневой дождь н/о +9.2 +7.1 87 +7 +7 1018.3 1000.9
00 12.06 СВ 3 15 км дождь н/о +8.8 +7.8 93 +6 +6 1017.6 1000.3 0.4
01 12.06 С 3 19 км слаб. дождь н/о +8.5 +7.5 93 +6 +6 1016.8 999.5
02 12.06 СЗ 3 15 км слаб. дождь н/о +8.7 +7.8 94 +6 +6 1015.7 998.4
03 12.06 С 4 17 км в посл. час дождь н/о +9.0 +7.8 92 +6 +6 1015.0 997.7
04 12.06 С 3 9000 м слаб. дождь н/о +9.1 +8.0 93 +6 +6 1014.4 997.2
05 12.06 С 4 8000 м слаб. дождь н/о +9.3 +8.4 94 +6 +6 1014.0 996.7
06 12.06 С 4 5000 м ливневой дождь н/о +9.2 +8.6 96 +6 +6 1013.8 996.6 +8.4 2
07 12.06 С 4 4500 м дождь н/о +9.4 +9.0 97 +7 +7 1013.4 996.1
08 12.06 С 3 4000 м слаб. морось н/о +9.5 +9.0 97 +7 +7 1013.5 996.3
09 12.06 С 4 3400 м дождь н/о +9.6 +9.2 97 +7 +7 1013.0 995.8
10 12.06 С 4 3500 м дождь н/о +9.9 +9.4 97 +7 +7 1013.4 996.2
11 12.06 С 4 5000 м в посл. час дождь н/о +10.1 +9.5 96 +7 +7 1012.6 995.5
12 12.06 С 4 6000 м в посл. час дождь н/о +10.7 +10.0 95 +8 +8 1012.3 995.1 5
13 12.06 СВ 4 3100 м дымка н/о +10.7 +10.3 97 +8 +8 1011.8 994.7
14 12.06 СВ 4 3600 м в посл. час дождь н/о +10.9 +10.5 97 +8 +8 1011.5 994.4
15 12.06 С 2 2200 м в посл. час дождь н/о +11.1 +10.8 98 +10 +10 1010.8 993.7
16 12.06 СВ 3 2600 м слаб. морось н/о +11.1 +10.9 99 +9 +9 1010.6 993.5
17 12.06 СВ 4 3400 м слаб. дождь н/о +11.5 +11.3 99 +9 +9 1009.9 992.9
18 12.06 СВ 6 2800 м слаб. дождь н/о +11.2 +11.0 99 +8 +8 1009.9 992.8 +11.5 7
19 12.06 СВ 3 4600 м сильн. дождь н/о +11.1 +10.9 99 +9 +9 1009.7 992.7
20 12.06 СВ 3 4100 м дождь н/о +10.8 +10.6 99 +9 +9 1009.3 992.2
21 12.06 СВ 5 3400 м дождь н/о +10.7 +10.5 99 +8 +8 1008.8 991.8
22 12.06 СВ 6 4100 м дождь н/о +10.3 +10.1 99 +7 +7 1008.5 991.4
23 12.06 СВ 7 7000 м дождь н/о +10.2 +10.0 99 +6 +6 1008.3 991.2
00 13.06 СВ 6
{14}
15 км дождь н/о +10.2 +10.0 99 +7 +7 1007.5 990.4 12
01 13.06 С 3 6000 м дождь н/о +9.6 +9.2 97 +7 +7 1006.3 989.2
02 13.06 С 3 7000 м сильн. дождь н/о +9.3 +9.0 98 +7 +7 1005.7 988.6
03 13.06 С 3 9000 м дождь н/о +9.3 +8.9 97 +7 +7 1004.8 987.8
04 13.06 С 4 12 км слаб. дождь н/о +9.1 +8.7 97 +6 +6 1004.5 987.4
05 13.06 С 3 8000 м дождь н/о +8.8 +8.4 97 +6 +6 1004.1 987.0
06 13.06 С 3 5000 м слаб. дождь н/о +8.5 +8.1 97 +6 +6 1003.8 986.7 +8.5 27
07 13.06 С 3 5000 м слаб. дождь н/о +8.3 +7.8 97 +6 +6 1003.5 986.3
08 13.06 С 3 10 км дождь н/о +8.0 +7.3 95 +5 +5 1003.4 986.2
09 13.06 С 3 10 км дождь н/о +7.9 +7.2 95 +5 +5 1003.1 986.0
10 13.06 С 3 9000 м слаб. дождь н/о +8.0 +7.2 95 +5 +5 1002.8 985.6
11 13.06 С 3 16 км дождь н/о +8.1 +7.1 93 +5 +5 1002.7 985.6
12 13.06 С 3 13 км слаб. дождь н/о +8.2 +7.3 94 +5 +5 1002.6 985.5 3
13 13.06 СЗ 3 18 км слаб. дождь н/о +8.7 +7.6 93 +6 +6 1002.5 985.4
14 13.06 СЗ 2 30 км дождь н/о +8.6 +7.6 93 +7 +7 1002.5 985.4
15 13.06 СЗ 3 18 км слаб. дождь н/о +8.8 +7.4 91 +6 +6 1002.5 985.4
16 13.06 СЗ 1 15 км слаб. дождь н/о +8.6 +7.0 90 +8 +8 1002.4 985.3
17 13.06 СЗ 2 8000 м дождь н/о +8.7 +7.4 92 +7 +7 1002.3 985.2
18 13.06 З 2 25 км слаб. дождь н/о +9.6 +8.3 92 +8 +8 1002.3 985.3 +9.6 6
19 13.06 З 1 50 км в посл. час дождь н/о +9.2 +7.9 92 +8 +8 1002.5 985.5
20 13.06 З 1 45 км н/о +8.7 +7.9 95 +9 +9 1002.9 985.8
21 13.06 Ю 1 50 км н/о +7.4 +6.8 96 +6 +6 1003.5 986.3
22 13.06 Ю 1 50 км н/о +7.6 +7.0 96 +7 +7 1003.9 986.7
23 13.06 Ю 1 40 км н/о +7.7 +7.1 96 +8 +8 1004.0 986.8
00 14.06 Ю 1 15 км н/о +8.1 +7.7 97 +7 +7 1003.8 986.7 0.0
01 14.06 ЮВ 1 11 км н/о +8.1 +7.7 97 +7 +7 1003.9 986.7
02 14.06 Ю 2 22 км н/о +8.0 +7.6 97 +6 +6 1003.8 986.7
03 14.06 Ю 2 40 км н/о +8.0 +7.2 95 +6 +6 1003.8 986.6
04 14.06 Ю 2 35 км н/о +7.8 +6.7 93 +6 +6 1004.0 986.9
05 14.06 Ю 2 30 км н/о +8.1 +6.6 90 +6 +6 1004.4 987.2
06 14.06 ЮВ 1 30 км н/о +8.6 +7.2 91 +8 +8 1004.9 987.7 +7.4 0.0
07 14.06 Ю 2 30 км н/о +9.2 +7.3 88 +8 +8 1004.8 987.7
08 14.06 ЮВ 2 28 км н/о +9.2 +7.7 90 +7 +7 1005.4 988.3
09 14.06 ЮВ 3 35 км слаб. ливневой дождь н/о +9.3 +7.4 88 +7 +7 1005.7 988.6
10 14.06 Ю 2 9000 м дождь н/о +9.1 +7.5 90 +8 +8 1006.1 988.9
11 14.06 ЮВ 1 40 км в посл. час дождь н/о +10.1 +8.1 87 +11 +11 1006.1 989.1
12 14.06 Ю 1 50 км н/о +12.0 +7.7 75 +12 +12 1006.0 989.1 1
13 14.06 З 1 35 км в посл. час дождь н/о +12.2 +8.9 80 +13 +13 1006.3 989.4
14 14.06 Ю 2 45 км н/о +13.8 +8.9 72 +14 +14 1006.6 989.7
15 14.06 З 2 28 км н/о +14.6 +8.3 66 +15 +15 1006.8 990.0
16 14.06 Ю 2 26 км н/о +14.5 +8.5 67 +15 +15 1007.1 990.3
17 14.06 З 2 45 км н/о +14.8 +8.0 64 +15 +15 1007.5 990.7
18 14.06 З 1 50 км н/о +14.1 +8.7 70 +15 +15 1007.9 991.1 +15.6 2
19 14.06 ЮВ 2 40 км н/о +13.5 +7.4 67 +13 +13 1008.1 991.2
20 14.06 ЮВ 2 45 км н/о +13.1 +8.0 71 +13 +13 1008.2 991.3
21 14.06 В 1 30 км н/о +11.3 +7.9 80 +11 +11 1008.9 991.9
22 14.06 В 2 50 км н/о +10.8 +8.4 85 +10 +10 1009.1 992.0
23 14.06 ЮВ 2 45 км н/о +10.8 +9.0 89 +10 +10 1009.0 991.9
00 15.06 В 1 35 км н/о +10.3 +8.9 91 +10 +10 1009.2 992.1 0.2
01 15.06 ЮВ 2 30 км н/о +10.8 +8.9 88 +10 +10 1009.3 992.2
02 15.06 ЮВ 2 26 км н/о +10.7 +9.3 91 +10 +10 1009.0 991.9
03 15.06 ЮВ 2 6000 м дымка н/о +10.1 +9.3 95 +9 +9 1008.7 991.6
04 15.06 ЮВ 1 4600 м дымка н/о +9.5 +8.9 96 +9 +9 1008.6 991.4
05 15.06 В 2 5000 м дымка н/о +10.2 +9.6 96 +9 +9 1008.6 991.5
06 15.06 ЮВ 1 6000 м дым н/о +10.8 +9.7 93 +10 +10 1008.7 991.7 +9.3
07 15.06 В 3 9000 м н/о +11.9 +10.2 89 +10 +10 1008.8 991.8
08 15.06 Ю 2 20 км н/о +13.3 +9.9 80 +13 +13 1008.8 991.9
09 15.06 Ю 4 26 км н/о +15.1 +9.2 68 +14 +14 1008.5 991.7
10 15.06 ЮВ 3 35 км н/о +15.4 +8.9 65 +15 +15 1008.5 991.7
11 15.06 Ю 3 28 км н/о +15.3 +9.0 66 +15 +15 1008.6 991.7
12 15.06 ЮВ 3 27 км н/о +14.9 +9.4 70 +14 +14 1008.9 992.0
13 15.06 Ю 3 40 км н/о +14.1 +10.0 76 +13 +13 1008.9 992.0
14 15.06 ЮВ 4 40 км в посл. час дождь н/о +16.2 +10.3 68 +16 +16 1008.5 991.7
15 15.06 ЮВ 3 50 км н/о +15.4 +10.0 70 +15 +15 1008.5 991.7
16 15.06 З 2 4800 м сильн. ливневой дождь н/о +12.0 +10.6 91 +11 +11 1009.2 992.2
17 15.06 З 1 35 км в посл. час дождь н/о +11.4 +10.0 91 +11 +11 1009.2 992.1
18 15.06 Ю 1 25 км в посл. час дождь н/о +12.2 +11.2 94 +12 +12 1008.9 991.9 +16.7 3
19 15.06 ЮВ 1 11 км слаб. ливневой дождь н/о +11.8 +10.7 93 +12 +12 1008.8 991.8
20 15.06 Ю 1 35 км в посл. час дождь н/о +11.2 +10.1 93 +11 +11 1009.2 992.2
21 15.06 Ю 1 8000 м дым н/о +10.0 +8.9 93 +10 +10 1009.6 992.5
22 15.06 Ю 1 18 км н/о +9.0 +8.4 96 +9 +9 1010.0 992.8
23 15.06 З 1 19 км н/о +7.9 +7.3 96 +8 +8 1010.4 993.1
00 16.06 З 1 35 км н/о +6.7 +5.8 94 +5 +5 1010.7 993.3 0.2
01 16.06 СЗ 1 21 км н/о +5.6 +5.0 96 +5 +5 1010.5 993.1
02 16.06 С 1 17 км н/о +5.3 +5.0 98 +5 +5 1010.5 993.0
03 16.06 штиль 0 20 км н/о +5.6 +5.3 98 +4 +4 1010.6 993.2
04 16.06 ЮЗ 1 28 км н/о +5.4 +5.2 99 +4 +4 1010.5 993.1
05 16.06 ЮВ 1 26 км н/о +6.1 +5.8 98 +6 +6 1010.7 993.3
06 16.06 Ю 2 35 км н/о +8.9 +7.5 91 +7 +7 1010.6 993.4 +5.0 0.2
07 16.06 Ю 2 20 км н/о +11.7 +8.1 79 +11 +11 1010.7 993.6
08 16.06 Ю 2 40 км н/о +13.6 +9.6 77 +13 +13 1010.7 993.8
09 16.06 Ю 2 45 км н/о +13.5 +7.6 67 +13 +13 1010.7 993.8
10 16.06 ЮЗ 2 30 км н/о +14.2 +7.6 64 +14 +14 1010.7 993.8
11 16.06 Ю 2 30 км н/о +13.0 +7.6 70 +12 +12 1010.9 993.9
12 16.06 Ю 2 35 км н/о +16.5 +9.3 62 +17 +17 1010.4 993.7
13 16.06 З 2 50 км н/о +16.3 +9.4 64 +16 +16 1010.5 993.8
14 16.06 ЮЗ 2 40 км н/о +16.5 +8.9 61 +17 +17 1010.4 993.7
15 16.06 Ю 1 50 км н/о +17.8 +8.1 53 +19 +19 1010.0 993.4
16 16.06 З 1 35 км в посл. час дождь н/о +15.1 +10.9 76 +16 +16 1010.5 993.6
17 16.06 Ю 3 35 км в посл. час дождь н/о +14.9 +10.3 74 +14 +14 1010.2 993.3
18 16.06 З 3 30 км н/о +15.9 +7.9 59 +15 +15 1010.0 993.3 +19.3 0.0
19 16.06 З 2 40 км н/о +15.6 +9.0 65 +16 +16 1010.0 993.2
20 16.06 ЮЗ 1 35 км н/о +13.7 +8.7 72 +14 +14 1010.0 993.1
21 16.06 Ю 3 40 км в посл. час дождь н/о +12.7 +10.1 84 +11 +11 1009.8 992.9
22 16.06 Ю 3 45 км в посл. час дождь н/о +12.5 +10.9 90 +11 +11 1009.5 992.5
23 16.06 Ю 4 50 км в посл. час дождь н/о +13.0 +11.2 89 +11 +11 1009.1 992.1
00 17.06 Ю 3 50 км н/о +12.8 +11.2 90 +11 +11 1008.9 992.0 0.2
01 17.06 Ю 2 45 км в посл. час дождь н/о +12.6 +11.0 90 +12 +12 1008.9 991.9
02 17.06 З 2 50 км н/о +11.6 +9.5 87 +11 +11 1009.0 991.9
03 17.06 З 2 50 км н/о +11.4 +8.4 82 +10 +10 1009.0 991.9
04 17.06 З 1 28 км н/о +10.3 +8.4 88 +10 +10 1009.4 992.3
05 17.06 З 2 30 км н/о +11.1 +9.0 87 +10 +10 1009.5 992.4
06 17.06 З 2 30 км н/о +12.6 +9.4 81 +12 +12 1009.8 992.8 +9.9 0.2
07 17.06 З 3 26 км н/о +14.5 +10.0 74 +14 +14 1010.1 993.2
08 17.06 З 3 30 км н/о +14.5 +8.9 69 +14 +14 1010.1 993.3
09 17.06 ЮЗ 3 40 км н/о +14.7 +9.2 70 +14 +14 1010.6 993.7
10 17.06 Ю 2 35 км н/о +14.6 +9.1 70 +14 +14 1010.7 993.8
11 17.06 ЮЗ 3 50 км в посл. час дождь н/о +15.5 +8.9 65 +15 +15 1010.6 993.8
12 17.06 З 4 45 км н/о +17.2 +9.5 61 +17 +17 1010.6 993.9 0.0
13 17.06 ЮЗ 3 30 км н/о +16.4 +8.5 60 +16 +16 1011.0 994.2
14 17.06 З 4 16 км н/о +17.1 +9.5 61 +17 +17 1010.9 994.1
15 17.06 З 3 40 км н/о +16.2 +8.5 60 +16 +16 1010.8 994.1
16 17.06 З 4 30 км н/о +17.0 +9.5 61 +17 +17 1010.7 994.0
17 17.06 З 4 27 км н/о +16.4 +8.1 58 +16 +16 1010.4 993.7
18 17.06 З 3 30 км н/о +16.2 +7.8 57 +16 +16 1010.9 994.1 +18.1 0.0
19 17.06 З 3 25 км н/о +16.0 +8.2 60 +16 +16 1011.0 994.2
20 17.06 З 2 40 км н/о +13.7 +7.3 65 +13 +13 1011.2 994.3
21 17.06 З 2 35 км н/о +11.8 +7.1 73 +11 +11 1012.2 995.1
22 17.06 ЮЗ 2 27 км н/о +11.3 +7.8 79 +11 +11 1012.1 995.0

 

Местоположение метеостанции Альбермарль (Великобритания): широта 55.02 долгота -1.87 высота над уровнем моря 146 м.

В архиве по умолчанию представлена погода в Альбермарле за последнюю неделю. Архивные данные за месяц целиком и за предыдущие месяцы, начиная с января 2011 года, Вы можете получить, выбрав интересующий диапазон дат из раскрывающегося списка и нажав кнопку "Ввод!".


*Определитесь, кто Вы:
робот инопланетянин человек

Внимание! Время в таблицах - всемирное. Для получения местного времени необходимо прибавить поправку, которая равна 0 ч.

Смотрите также архив погоды в соседних городах и на ближайших метеорологических станциях:

Погода в Лагере Redesdale (Великобритания) (39 км)
Погода в Спадедэме (Великобритания) (43 км)
Погода в Боулмере (Великобритания) (48 км)
Погода в Грэйт Дан Фелле (Великобритания) (53 км)
Погода в Варкопе (Великобритания) (61 км)
Погода в Карлайле (Великобритания) (71 км)
Погода в Шапе (Великобритания) (78 км)
Погода в Лофтусе (Великобритания) (81 км)
Погода в Чартерхолле (Великобритания) (82 км)
Погода в Лееминге (Великобритания) (83 км)

Пояснения к столбцам:

Ветер - указаны скорость ветра в м/с - средняя за 10 мин, порывы в срок и между сроками (в фигурных скобках) и направление, откуда дует ветер: С - северный, СВ - северо-восточный, В - восточный, ЮВ - юго-восточный, Ю - южный, ЮЗ - юго-западный, З - западный, СЗ - северо-западный.
Видимость - горизонтальная дальность видимости в метрах или километрах. При видимости от 1 до 10 км при отсутствии осадков обычно наблюдается дымка, при ухудшении видимости до 1 км и менее - туман. В сухую погоду видимость может ухудшаться дымом, пылью или мглою.
Явления - указаны атмосферные явления, наблюдавшиеся в срок или в последний час перед сроком; фигурными скобками обозначены явления, наблюдавшиеся между сроками (за 1-3 часа до срока); квадратными скобками обозначены град или гололедные отложения с указанием их диаметра в мм.
Облачность - указаны через наклонную черту общая и нижняя облачность в баллах и высота нижней границы облаков в метрах; квадратными скобками обозначены формы облаков: Ci - перистые, Cs - перисто-слоистые, Cc - перисто-кучевые, Ac - высококучевые, As - высокослоистые, Sc - слоисто-кучевые, Ns - слоисто-дождевые, Cu - кучевые, Cb - кучево-дождевые. Подробнее классификацию облаков см. в Атласе облаков (PDF).
T - Температура воздуха - температура, измеренная на высоте 2 м над землей.
Td - Температура точки росы - температура, при понижении до которой содержащийся в воздухе водяной пар достигнет насыщения.
f - Относительная влажность воздуха - влажноcть воздуха, измеренная на высоте 2 м над землей.
Te - Эффективная температура - температура, которую ощущает одетый по сезону человек в тени. Характеристика душности погоды. При расчете учитывается влияние влажности воздуха и скорости ветра на теплоощущения человека.
Tes - Эффективная температура на солнце - температура, которую ощущает человек, с поправкой на солнечный нагрев. Характеристика знойности погоды. Зависит от высоты солнца над горизонтом, облачности и скорости ветра. Ночью, в пасмурную погоду, а также при ветре 12 м/с и более поправка равна нулю.
P - Атмосферное давление - приведенное к уровню моря атмосферное давление.
Po - Атмосферное давление - измеренное на уровне метеостанции атмосферное давление.
Tmin - Минимальная температура - минимум температуры воздуха на высоте 2 м над землей.
Tmax - Максимальная температура - максимум температуры воздуха на высоте 2 м над землей.
R - Количество осадков - Количество выпавших осадков за период времени, мм. При наведении курсора мыши на число - период времени, за который выпало указанное количество осадков.
R24 - Количество осадков - Количество выпавших осадков за 24 часа, мм.
S - Снежный покров - Высота снежного покрова, см. При наведении курсора мыши на число - состояние снежного покрова и степень покрытия местности в баллах.